Location: Lake Almanor
(40.2485°N, 121.1442°W)
Time: 07:25:56
(UTC-08:00)

STARLINK-1126 - Pass Details

Date: 04 February 2020
Orbit: 348 x 351 km, 53.0° (Epoch: 18 February)

Event Time Altitude Azimuth Distance (km) Brightness Sun altitude
Rises 18:23:35 0° 292° (WNW) 2,162 7.7 -11.3°
Reaches altitude 10° 18:26:14 10° 265° (W) 1,315 7.1 -11.8°
Maximum altitude 18:27:53 14° 231° (SW) 1,101 6.1 -12.1°
Drops below altitude 10° 18:29:32 10° 196° (SSW) 1,309 5.9 -12.4°
Sets 18:32:10 0° 170° (S) 2,146 6.7 -12.9°
